SCP
0 0 0 0 0 0 0 0 0 0 0 0 0 0 0 0 0 0 0 0 0 0 0 0 0 0 0 0 0 0 0 0
0 0 0 0 0 0 0 0 0 0 0 0 0 0 0 0 0 0 0 0 0 0 0 0 0 0 0 0 0 0 0 0
0 0 0 0 0 0 0 0 0 0 0 0 0 0 0 0 0 0 0 0 0 0 0 0 0 0 0 0 0 0 0 0
0 0 0 0 0 0 0 0 0 0 0 0 0 0 0 0 0 0 0 0 0 0 0 0 0 0 0 0 0 0 0 0
0 0 0 0 0 0 0 0 0 0 0 0 0 0 0 0 0 0 0 0 0 0 0 0 0 0 0 0 0 0 0 0
0 0 0 0 0 0 0 0 0 0 0 0 0 0 0 0 0 0 0 0 0 0 0 0 0 0 0 0 0 0 0 0
0 0 0 0 0 0 0 0 0 0 0 0 0 0 0 0 0 0 0 0 0 0 0 0 0 0 0 0 0 0 0 0
0 0 0 0 0 0 0 0 0 0 0 0 0 0 0 0 0 0 0 0 0 0 0 0 0 0 0 0 0 0 0 0
0 0 0 0 0 0 0 0 0 0 0 0 0 0 0 0 0 0 0 0 0 0 0 0 0 0 0 0 0 0 0 0
0 0 0 0 0 0 0 0 0 0 0 0 0 0 0 0 0 0 0 0 0 0 0 0 0 0 0 0 0 0 0 0
0 0 0 0 0 0 0 0 0 0 0 0 0 0 0 0 0 0 0 0 0 0 0 0 0 0 0 0 0 0 0 0
0 0 0 0 0 0 0 0 0 0 0 0 0 0 0 0 0 0 0 0 0 0 0 0 0 0 0 0 0 0 0 0
0 0 0 0 0 0 0 0 0 0 0 0 0 0 0 0 0 0 0 0 0 0 0 0 0 0 0 0 0 0 0 0
0 0 0 0 0 0 0 0 0 0 0 0 0 0 0 0 0 0 0 0 0 0 0 0 0 0 0 0 0 0 0 0
0 0 0 0 0 0 0 0 0 0 0 0 0 0 0 0 0 0 0 0 0 0 0 0 0 0 0 0 0 0 0 0
0 0 0 0 0 0 0 0 0 0 0 0 0 0 0 0 0 0 0 0 0 0 0 0 0 0 0 0 0 0 0 0
0 0 0 0 0 0 0 0 0 0 0 0 0 0 0 0 0 0 0 0 0 0 0 0 0 0 0 0 0 0 0 0
0 0 0 0 0 0 0 0 0 0 0 0 0 0 0 0 0 0 0 0 0 0 0 0 0 0 0 0 0 0 0 0
0 0 0 0 -0 -0 0 0 0 0 0 0 0 0 0 0 0 0 0 0 0 0 0 0 0 0 0 0 0 0 0 0
-0 -0 -0 -0 -0 -0 0 0 0 0 0 0 0 0 0 0 0 0 0 0 0 0 0 0 0 0 0 0 0 0 0 0
Wind_Speed_500mb
8 10 14 18 22 24 25 27 29 32 32 32 32 33 33 33 32 32 29 28 25 25 27 28 32 29 30 28 22 18 20 23
8 11 12 16 20 22 20 21 22 26 26 27 28 31 32 28 26 27 25 23 24 26 28 30 27 28 24 19 12 12 15 19
12 15 16 16 20 21 20 18 20 22 22 24 25 25 24 24 23 22 23 26 27 29 27 23 25 22 16 10 6 5 8 12
14 17 19 19 22 22 23 20 21 22 22 22 22 23 23 22 22 24 24 24 25 23 22 24 20 14 11 8 10 12 14 15
14 16 19 21 23 22 23 25 23 25 25 22 23 23 22 23 25 27 26 25 23 22 23 20 16 15 13 14 15 17 17 19
25 21 21 21 22 26 25 23 25 25 26 26 27 23 25 27 29 29 27 24 24 23 20 19 19 19 19 21 23 23 22 24
24 27 27 30 28 25 29 27 24 25 26 30 32 30 28 29 32 33 27 24 26 24 23 26 24 25 28 29 29 29 29 27
21 26 31 35 36 31 28 31 30 26 27 32 36 37 36 38 40 36 34 34 34 32 34 33 32 33 34 35 38 37 35 35
25 28 30 31 31 31 32 30 31 31 29 32 36 40 41 45 47 45 44 45 45 44 43 44 41 40 42 43 46 46 43 40
25 28 29 29 29 28 28 29 28 28 30 33 37 41 43 45 48 50 54 55 56 55 54 56 53 47 49 50 53 53 51 46
21 23 26 25 25 25 24 25 26 27 27 30 34 38 42 45 48 51 54 58 61 64 64 64 64 60 57 57 58 61 61 53
18 20 22 21 22 23 25 25 26 27 28 29 32 35 36 40 42 45 49 54 57 61 63 65 67 67 65 62 65 66 67 64
15 18 20 22 23 23 25 27 28 28 29 28 29 32 34 36 36 38 42 45 47 51 55 56 57 60 64 65 67 67 71 72
15 17 20 21 24 26 27 29 29 28 27 27 28 29 31 33 33 33 33 37 39 41 43 43 41 44 47 52 60 64 68 72
15 18 20 23 26 28 29 30 31 30 29 28 27 27 27 28 31 31 30 30 30 32 35 36 35 33 34 36 39 46 58 65
18 21 23 25 27 28 29 30 30 30 31 30 30 30 28 26 28 28 25 25 30 35 36 37 39 34 33 32 33 37 38 41
21 23 25 26 27 27 29 32 33 33 33 34 34 33 32 32 23 20 25 24 21 22 20 29 35 35 37 33 34 38 36 37
21 23 26 28 29 30 31 32 34 35 34 34 34 34 35 34 35 31 18 20 21 22 24 27 28 28 31 35 39 39 34 28
20 23 25 29 31 32 32 33 35 34 34 34 35 35 33 32 31 33 35 28 21 21 23 24 31 30 28 31 25 23 26 33
19 23 24 28 31 35 34 33 33 33 33 33 33 33 33 31 30 30 29 30 29 24 24 26 26 28 30 31 30 27 23 22
Wind_Direction_500mb
305 291 284 287 286 283 280 280 278 276 276 277 275 273 271 271 270 267 264 259 260 262 261 260 259 263 266 267 270 290 298 302
321 320 308 299 292 285 283 281 279 279 281 280 277 276 276 269 267 266 265 271 266 262 259 253 257 257 259 258 273 294 306 304
307 311 314 313 300 290 288 286 286 285 281 279 278 276 275 275 274 281 283 274 261 251 251 251 247 243 238 238 259 287 321 330
307 299 300 307 305 303 296 292 291 288 286 284 282 279 276 279 289 289 280 266 252 250 250 242 233 220 199 215 247 269 286 308
300 312 306 304 302 305 304 298 289 288 288 287 281 280 281 283 282 275 269 261 250 243 237 236 223 207 223 244 256 268 282 293
276 295 315 314 305 299 300 299 291 278 279 279 276 280 281 275 270 265 258 255 253 244 237 230 230 236 244 252 259 267 275 282
278 283 299 309 311 306 297 289 288 286 267 266 270 269 266 265 263 260 257 255 250 245 241 244 248 251 256 260 264 268 273 276
292 290 295 302 307 308 302 296 287 284 284 268 264 265 264 262 261 262 260 255 254 253 254 255 255 258 262 266 269 270 271 273
301 301 302 304 306 308 304 302 297 292 283 278 276 272 267 265 266 266 264 261 259 258 259 262 259 260 264 268 270 270 270 271
308 313 318 319 318 313 308 305 302 297 293 288 282 278 277 275 271 268 266 264 264 263 261 262 264 264 266 269 269 270 270 270
310 317 323 324 318 317 314 312 310 307 303 297 291 287 285 282 278 274 270 268 266 265 264 264 266 266 266 267 269 269 270 270
319 321 324 326 325 322 321 320 321 319 314 309 304 300 296 291 289 285 279 275 272 271 269 268 267 267 267 265 266 268 271 271
322 322 327 329 330 329 328 331 331 329 325 321 315 310 307 303 298 292 290 287 284 280 277 276 274 272 269 267 264 265 267 269
332 334 334 333 334 336 338 339 340 336 332 331 329 324 319 315 311 305 300 296 294 293 292 291 288 282 277 274 267 264 261 265
344 344 341 339 340 340 342 343 343 342 342 342 339 335 330 326 321 317 310 305 306 306 305 305 302 301 294 289 282 273 266 265
7 0 353 347 344 343 344 346 347 348 347 347 348 346 345 344 336 326 321 312 309 310 310 312 307 310 314 317 312 302 288 280
13 5 357 352 347 345 345 345 346 347 346 346 347 347 348 346 356 342 328 321 305 295 307 291 290 293 290 291 285 284 288 276
4 357 355 353 348 347 344 342 343 343 343 343 342 343 345 348 348 352 10 347 331 318 304 308 311 311 307 296 287 287 280 267
350 348 348 351 348 348 345 341 340 339 339 340 339 338 341 342 345 346 347 354 355 343 341 346 339 332 332 331 333 315 292 277
346 345 344 345 346 348 346 342 339 337 335 336 337 337 336 338 341 341 344 344 348 350 342 338 343 346 344 337 335 335 327 309
Wind_Speed_850mb
8 10 14 18 22 24 25 27 29 32 32 32 32 33 33 33 32 32 29 28 25 25 27 28 32 29 30 28 22 18 20 23
8 11 12 16 20 22 20 21 22 26 26 27 28 31 32 28 26 27 25 23 24 26 28 30 27 28 24 19 12 12 15 19
12 15 16 16 20 21 20 18 20 22 22 24 25 25 24 24 23 22 23 26 27 29 27 23 25 22 16 10 6 5 8 12
14 17 19 19 22 22 23 20 21 22 22 22 22 23 23 22 22 24 24 24 25 23 22 24 20 14 11 8 10 12 14 15
14 16 19 21 23 22 23 25 23 25 25 22 23 23 22 23 25 27 26 25 23 22 23 20 16 15 13 14 15 17 17 19
25 21 21 21 22 26 25 23 25 25 26 26 27 23 25 27 29 29 27 24 24 23 20 19 19 19 19 21 23 23 22 24
24 27 27 30 28 25 29 27 24 25 26 30 32 30 28 29 32 33 27 24 26 24 23 26 24 25 28 29 29 29 29 27
21 26 31 35 36 31 28 31 30 26 27 32 36 37 36 38 40 36 34 34 34 32 34 33 32 33 34 35 38 37 35 35
25 28 30 31 31 31 32 30 31 31 29 32 36 40 41 45 47 45 44 45 45 44 43 44 41 40 42 43 46 46 43 40
25 28 29 29 29 28 28 29 28 28 30 33 37 41 43 45 48 50 54 55 56 55 54 56 53 47 49 50 53 53 51 46
21 23 26 25 25 25 24 25 26 27 27 30 34 38 42 45 48 51 54 58 61 64 64 64 64 60 57 57 58 61 61 53
18 20 22 21 22 23 25 25 26 27 28 29 32 35 36 40 42 45 49 54 57 61 63 65 67 67 65 62 65 66 67 64
15 18 20 22 23 23 25 27 28 28 29 28 29 32 34 36 36 38 42 45 47 51 55 56 57 60 64 65 67 67 71 72
15 17 20 21 24 26 27 29 29 28 27 27 28 29 31 33 33 33 33 37 39 41 43 43 41 44 47 52 60 64 68 72
15 18 20 23 26 28 29 30 31 30 29 28 27 27 27 28 31 31 30 30 30 32 35 36 35 33 34 36 39 46 58 65
18 21 23 25 27 28 29 30 30 30 31 30 30 30 28 26 28 28 25 25 30 35 36 37 39 34 33 32 33 37 38 41
21 23 25 26 27 27 29 32 33 33 33 34 34 33 32 32 23 20 25 24 21 22 20 29 35 35 37 33 34 38 36 37
21 23 26 28 29 30 31 32 34 35 34 34 34 34 35 34 35 31 18 20 21 22 24 27 28 28 31 35 39 39 34 28
20 23 25 29 31 32 32 33 35 34 34 34 35 35 33 32 31 33 35 28 21 21 23 24 31 30 28 31 25 23 26 33
19 23 24 28 31 35 34 33 33 33 33 33 33 33 33 31 30 30 29 30 29 24 24 26 26 28 30 31 30 27 23 22
Wind_Direction_850mb
305 291 284 287 286 283 280 280 278 276 276 277 275 273 271 271 270 267 264 259 260 262 261 260 259 263 266 267 270 290 298 302
321 320 308 299 292 285 283 281 279 279 281 280 277 276 276 269 267 266 265 271 266 262 259 253 257 257 259 258 273 294 306 304
307 311 314 313 300 290 288 286 286 285 281 279 278 276 275 275 274 281 283 274 261 251 251 251 247 243 238 238 259 287 321 330
307 299 300 307 305 303 296 292 291 288 286 284 282 279 276 279 289 289 280 266 252 250 250 242 233 220 199 215 247 269 286 308
300 312 306 304 302 305 304 298 289 288 288 287 281 280 281 283 282 275 269 261 250 243 237 236 223 207 223 244 256 268 282 293
276 295 315 314 305 299 300 299 291 278 279 279 276 280 281 275 270 265 258 255 253 244 237 230 230 236 244 252 259 267 275 282
278 283 299 309 311 306 297 289 288 286 267 266 270 269 266 265 263 260 257 255 250 245 241 244 248 251 256 260 264 268 273 276
292 290 295 302 307 308 302 296 287 284 284 268 264 265 264 262 261 262 260 255 254 253 254 255 255 258 262 266 269 270 271 273
301 301 302 304 306 308 304 302 297 292 283 278 276 272 267 265 266 266 264 261 259 258 259 262 259 260 264 268 270 270 270 271
308 313 318 319 318 313 308 305 302 297 293 288 282 278 277 275 271 268 266 264 264 263 261 262 264 264 266 269 269 270 270 270
310 317 323 324 318 317 314 312 310 307 303 297 291 287 285 282 278 274 270 268 266 265 264 264 266 266 266 267 269 269 270 270
319 321 324 326 325 322 321 320 321 319 314 309 304 300 296 291 289 285 279 275 272 271 269 268 267 267 267 265 266 268 271 271
322 322 327 329 330 329 328 331 331 329 325 321 315 310 307 303 298 292 290 287 284 280 277 276 274 272 269 267 264 265 267 269
332 334 334 333 334 336 338 339 340 336 332 331 329 324 319 315 311 305 300 296 294 293 292 291 288 282 277 274 267 264 261 265
344 344 341 339 340 340 342 343 343 342 342 342 339 335 330 326 321 317 310 305 306 306 305 305 302 301 294 289 282 273 266 265
7 0 353 347 344 343 344 346 347 348 347 347 348 346 345 344 336 326 321 312 309 310 310 312 307 310 314 317 312 302 288 280
13 5 357 352 347 345 345 345 346 347 346 346 347 347 348 346 356 342 328 321 305 295 307 291 290 293 290 291 285 284 288 276
4 357 355 353 348 347 344 342 343 343 343 343 342 343 345 348 348 352 10 347 331 318 304 308 311 311 307 296 287 287 280 267
350 348 348 351 348 348 345 341 340 339 339 340 339 338 341 342 345 346 347 354 355 343 341 346 339 332 332 331 333 315 292 277
346 345 344 345 346 348 346 342 339 337 335 336 337 337 336 338 341 341 344 344 348 350 342 338 343 346 344 337 335 335 327 309